Regional Weather Roundup
Issued by NWS Newport/Morehead, NC

Current Version | Previous Version | Text Only | Print | Product List | Glossary Off
Versions: 1 2 3 4 5 6 7 8 9 10 11 12 13 14 15 16 17 18 19 20 21 22 23 24 25 26 27 28 29 30 31 32 33 34 35 36 37 38 39 40 41 42 43 44 45 46 47 48 49 50
000 ASUS42 KMHX 250522 RWRMHX WEATHER ROUNDUP FOR EASTERN NORTH CAROLINA NATIONAL WEATHER SERVICE NEWPORT/MOREHEAD CITY NC 1200 AM EST THU DEC 25 2014 NOTE: "FAIR" INDICATES FEW OR NO CLOUDS BELOW 12,000 FEET WITH NO SIGNIFICANT WEATHER AND/OR OBSTRUCTIONS TO VISIBILITY NCZ015>017-031-032-045>047-102-103-250600- NORTH COAST CITY SKY/WX TMP DP RH WIND PRES REMARKS EDENTON CLOUDY 64 62 91 S12G17 29.69S ELIZABETH CITY LGT RAIN 71 64 78 S14G21 29.67F KITTY HAWK CLOUDY 64 64 100 S8 29.71F FOG MANTEO CLOUDY 59 59 100 S17 29.72F FOG $$ NCZ045>047-081-094-103-104-250600- CENTRAL COAST CITY SKY/WX TMP DP RH WIND PRES REMARKS FRISCO LGT RAIN 65 65 100 S15 29.75F FOG SWANQUARTER N/A 59 N/A N/A S3G10 29.68F $$ NCZ095-097-098-100-101-250600- SOUTHERN COAST CITY SKY/WX TMP DP RH WIND PRES REMARKS BEAUFORT CLOUDY 66 65 96 S16 29.75S FOG CEDAR ISLAND N/A 70 N/A N/A S13G25 29.77S JACKSONVILLE CLOUDY 67 63 87 SW10 29.75R PINEY ISLAND CLOUDY 73 68 84 S15G26 29.74F WILMINGTON CLOUDY 66 63 90 SW8 29.76R $$ NCZ011>013-027>030-043-044-078>080-089-090>093-098-250600- COASTAL PLAIN CITY SKY/WX TMP DP RH WIND PRES REMARKS AHOSKIE CLOUDY 66 61 82 SW7 29.68R CLINTON CLOUDY 66 65 96 SW7 29.75R ELIZABETHTOWN CLOUDY 66 65 94 SW9G20 29.75S GOLDSBORO CLOUDY 66 66 100 SW10 29.71R GREENVILLE MOCLDY 68 63 83 SW12 29.72S HAVELOCK CLOUDY 70 68 93 S13G24 29.73F KENANSVILLE CLOUDY 66 63 89 SW6 29.74R KINSTON CLOUDY 68 63 85 S12 29.72R NEW BERN CLOUDY 69 65 86 S9 29.72F RICHLANDS CLOUDY 64 61 88 S10 29.74R ROCKY MOUNT CLOUDY 66 62 87 S12G22 29.70R WASHINGTON CLOUDY 66 64 91 SW6 29.71R WHITEVILLE CLOUDY 65 63 91 SW7 29.77R $$ AMZ130-135-150-152-154-156-158-170-250-252-270-ANZ085-086-088-633-658-670-250600- MARINE OBSERVATIONS STATION/POSITION TIME TEMP WIND PRES WAVE SWELL AIR SEA DIR/SP/G HT/PER HT/PER (UTC) (F) (DEG/KT/KT) (MB) (FT/S) (FT/S) CHESAPEAKE LIGHT 0500 57 190/ 28/ 30 1004.1 64 E VA BEACH 0500 58 53 180/ 16/ 17 1005.8 7/ 8 5/ 8 DUCK 0500 66 50 180/ 19/ 24 1004.6 2 E DUCK 0500 50 N/A 3/ 8 2/11 10 NE DUCK 0500 50 N/A 5/ 8 2/11 OREGON INLET 0500 61 53 170/ 12/ 18 1006.5 13E OREGON INLT 0500 51 N/A 6/ 8 2/11 HATTERAS CG 0500 67 56 190/ 9/ 17 1007.5 DIAMOND BUOY 0500 76 1007.4 9/ 8 17 S OCRACOKE NOT AVBL CAPE LOOKOUT 0500 66 180/ 19/ 20 1007.3 BEAUFORT LAB 0500 63 55 190/ 12/ 16 1006.2 30 SE NEW RIVER 0500 67 60 200/ 17/ 19 1007.7 7/ 8 5 SE WRIGHTSVLE NOT AVBL 225 S CAPE HAT 0445 75 72 200/ 19/ 25 1014.1 7/ 7 41 SE CHARLESTON 0500 71 73 240/ 23/ 27 1008.2 6/ 8 5/ 8 $$

USA.gov is the U.S. government's official web portal to all federal, state and local government web resources and services.